QPF
0.01 0.01 0.00 0.01 0.01 0.00 0.00 0.00 0.00 0.00 0.00 0.00 0.00 0.00 0.00 0.01 0.01 0.01 0.01 0.01 0.01 0.01 0.01 0.01 0.01 0.01 0.01 0.01 0.01 0.00 0.00 0.00 0.00 0.00 0.00 0.01 0.01 0.02
0.01 0.01 0.01 0.01 0.00 0.00 0.00 0.00 0.00 0.00 0.00 0.00 0.00 0.00 0.00 0.00 0.00 0.01 0.01 0.01 0.01 0.02 0.02 0.02 0.02 0.01 0.01 0.01 0.00 0.00 0.00 0.00 0.00 0.00 0.00 0.00 0.00 0.01
0.01 0.00 0.00 0.00 0.00 0.00 0.00 0.00 0.00 0.00 0.00 0.00 0.00 0.00 0.00 0.00 0.00 0.01 0.01 0.01 0.02 0.02 0.02 0.02 0.01 0.01 0.01 0.01 0.01 0.01 0.01 0.00 0.00 0.00 0.00 0.00 0.00 0.00
0.01 0.01 0.01 0.01 0.00 0.00 0.00 0.00 0.00 0.00 0.00 0.00 0.00 0.00 0.00 0.00 0.00 0.01 0.01 0.02 0.02 0.02 0.02 0.02 0.02 0.02 0.02 0.02 0.01 0.01 0.01 0.01 0.01 0.01 0.00 0.00 0.00 0.00
0.02 0.02 0.02 0.01 0.02 0.02 0.01 0.00 0.00 0.00 0.00 0.00 0.00 0.00 0.00 0.00 0.00 0.00 0.01 0.01 0.01 0.01 0.01 0.01 0.01 0.01 0.01 0.01 0.01 0.01 0.01 0.01 0.01 0.01 0.01 0.00 0.00 0.00
0.05 0.04 0.03 0.03 0.03 0.03 0.02 0.01 0.01 0.01 0.00 0.00 0.00 0.00 0.00 0.00 0.00 0.00 0.00 0.00 0.01 0.01 0.01 0.01 0.01 0.01 0.01 0.01 0.01 0.01 0.01 0.01 0.01 0.01 0.01 0.01 0.01 0.01
0.08 0.06 0.04 0.03 0.02 0.01 0.01 0.01 0.01 0.01 0.01 0.01 0.00 0.00 0.00 0.00 0.00 0.00 0.00 0.00 0.00 0.00 0.00 0.01 0.01 0.01 0.01 0.01 0.01 0.01 0.01 0.01 0.01 0.01 0.01 0.01 0.01 0.01
0.08 0.05 0.03 0.02 0.02 0.02 0.02 0.01 0.01 0.01 0.00 0.00 0.00 0.00 0.00 0.00 0.00 0.00 0.00 0.00 0.00 0.00 0.00 0.00 0.00 0.00 0.00 0.00 0.00 0.00 0.00 0.00 0.00 0.00 0.00 0.00 0.00 0.01
0.05 0.03 0.02 0.02 0.02 0.01 0.01 0.01 0.00 0.00 0.00 0.00 0.00 0.00 0.00 0.00 0.00 0.00 0.00 0.00 0.00 0.00 0.00 0.00 0.00 0.00 0.00 0.00 0.00 0.00 0.00 0.00 0.00 0.00 0.00 0.01 0.01 0.01
0.02 0.02 0.02 0.02 0.01 0.01 0.01 0.01 0.00 0.00 0.00 0.00 0.00 0.00 0.00 0.00 0.00 0.00 0.00 0.00 0.00 0.01 0.01 0.01 0.00 0.00 0.00 0.00 0.01 0.01 0.01 0.01 0.01 0.01 0.01 0.01 0.01 0.01
0.01 0.01 0.01 0.01 0.01 0.01 0.01 0.01 0.01 0.00 0.00 0.00 0.00 0.00 0.00 0.00 0.00 0.00 0.00 0.00 0.00 0.00 0.00 0.00 0.00 0.00 0.00 0.00 0.00 0.00 0.00 0.00 0.00 0.00 0.00 0.00 0.00 0.00
0.01 0.01 0.01 0.01 0.00 0.00 0.00 0.00 0.00 0.00 0.00 0.00 0.00 0.00 0.00 0.00 0.00 0.00 0.00 0.00 0.00 0.00 0.00 0.00 0.00 0.00 0.00 0.00 0.00 0.00 0.00 0.00 0.00 0.00 0.00 0.00 0.00 0.00
0.01 0.01 0.01 0.00 0.00 0.00 0.00 0.00 0.00 0.00 0.00 0.00 0.00 0.00 0.00 0.00 0.00 0.00 0.00 0.00 0.00 0.00 0.00 0.00 0.00 0.00 0.00 0.00 0.00 0.00 0.00 0.00 0.00 0.00 0.00 0.00 0.00 0.00
0.01 0.01 0.00 0.00 0.00 0.00 0.00 0.00 0.00 0.00 0.00 0.00 0.00 0.00 0.00 0.00 0.00 0.00 0.00 0.00 0.00 0.00 0.00 0.00 0.00 0.00 0.00 0.00 0.00 0.00 0.00 0.00 0.00 0.00 0.00 0.00 0.00 0.00
0.01 0.00 0.00 0.00 0.00 0.00 0.00 0.00 0.00 0.00 0.00 0.00 0.00 0.00 0.00 0.00 0.00 0.00 0.00 0.00 0.00 0.00 0.00 0.00 0.00 0.00 0.00 0.00 0.00 0.00 0.00 0.00 0.00 0.00 0.00 0.00 0.00 0.00
0.01 0.00 0.00 0.00 0.00 0.00 0.00 0.00 0.00 0.00 0.00 0.00 0.00 0.00 0.00 0.00 0.00 0.00 0.00 0.00 0.00 0.00 0.00 0.00 0.00 0.00 0.00 0.00 0.00 0.00 0.00 0.00 0.00 0.00 0.00 0.00 0.00 0.00
0.01 0.00 0.00 0.00 0.00 0.00 0.00 0.00 0.00 0.00 0.00 0.00 0.00 0.00 0.00 0.00 0.00 0.00 0.00 0.00 0.00 0.00 0.00 0.00 0.00 0.00 0.00 0.00 0.00 0.00 0.00 0.00 0.00 0.00 0.00 0.00 0.00 0.00
0.01 0.01 0.01 0.00 0.00 0.00 0.00 0.00 0.00 0.00 0.00 0.00 0.00 0.00 0.00 0.00 0.00 0.00 0.00 0.00 0.00 0.00 0.00 0.00 0.00 0.00 0.00 0.00 0.00 0.00 0.00 0.00 0.00 0.00 0.00 0.00 0.00 0.00
0.01 0.01 0.00 0.00 0.00 0.00 0.00 0.00 0.00 0.00 0.00 0.00 0.00 0.00 0.00 0.00 0.00 0.00 0.00 0.00 0.00 0.00 0.00 0.00 0.00 0.00 0.01 0.01 0.00 0.00 0.01 0.01 0.01 0.01 0.01 0.00 0.00 0.01
0.00 0.00 0.00 0.00 0.00 0.00 0.00 0.00 0.00 0.00 0.00 0.00 0.00 0.00 0.00 0.00 0.00 0.00 0.00 0.00 0.00 0.00 0.00 0.00 0.00 0.01 0.01 0.02 0.01 0.01 0.01 0.02 0.02 0.02 0.01 0.01 0.01 0.01
0.00 0.00 0.00 0.00 0.00 0.00 0.00 0.00 0.00 0.00 0.00 0.00 0.00 0.00 0.00 0.00 0.00 0.00 0.00 0.00 0.00 0.00 0.00 0.00 0.00 0.01 0.01 0.01 0.01 0.01 0.01 0.01 0.02 0.03 0.03 0.03 0.02 0.02
0.00 0.00 0.00 0.00 0.00 0.00 0.00 0.00 0.00 0.00 0.00 0.00 0.00 0.00 0.00 0.00 0.00 0.00 0.00 0.00 0.00 0.00 0.00 0.00 0.00 0.00 0.01 0.01 0.01 0.01 0.01 0.00 0.01 0.02 0.03 0.04 0.03 0.04
0.00 0.00 0.00 0.00 0.00 0.00 0.00 0.00 0.00 0.00 0.00 0.00 0.00 0.00 0.00 0.00 0.00 0.00 0.00 0.00 0.00 0.00 0.00 0.00 0.00 0.00 0.00 0.01 0.01 0.01 0.01 0.00 0.00 0.00 0.01 0.01 0.02 0.03
MSLP
1019.50 1019.82 1020.11 1020.36 1020.56 1020.68 1020.73 1020.70 1020.61 1020.48 1020.31 1020.12 1019.91 1019.69 1019.47 1019.25 1019.04 1018.88 1018.77 1018.74 1018.80 1018.95 1019.18 1019.46 1019.76 1020.03 1020.26 1020.40 1020.46 1020.44 1020.37 1020.28 1020.19 1020.14 1020.14 1020.19 1020.27 1020.37
1019.38 1019.67 1019.93 1020.14 1020.30 1020.40 1020.44 1020.42 1020.37 1020.28 1020.17 1020.04 1019.89 1019.72 1019.54 1019.34 1019.14 1018.97 1018.84 1018.78 1018.80 1018.91 1019.11 1019.36 1019.63 1019.89 1020.09 1020.21 1020.25 1020.20 1020.10 1019.97 1019.85 1019.76 1019.73 1019.76 1019.83 1019.93
1019.34 1019.59 1019.82 1019.99 1020.12 1020.20 1020.23 1020.23 1020.21 1020.18 1020.14 1020.09 1020.03 1019.93 1019.80 1019.64 1019.46 1019.28 1019.12 1019.02 1018.99 1019.04 1019.18 1019.37 1019.58 1019.79 1019.94 1020.03 1020.03 1019.95 1019.81 1019.65 1019.50 1019.38 1019.32 1019.33 1019.38 1019.47
1019.43 1019.66 1019.85 1019.99 1020.09 1020.15 1020.18 1020.20 1020.22 1020.25 1020.28 1020.32 1020.33 1020.31 1020.24 1020.12 1019.96 1019.77 1019.58 1019.43 1019.33 1019.31 1019.35 1019.46 1019.59 1019.73 1019.82 1019.85 1019.81 1019.69 1019.52 1019.33 1019.15 1019.01 1018.93 1018.92 1018.96 1019.03
1019.69 1019.90 1020.07 1020.19 1020.27 1020.32 1020.35 1020.39 1020.44 1020.51 1020.61 1020.71 1020.79 1020.83 1020.81 1020.73 1020.58 1020.38 1020.16 1019.95 1019.78 1019.67 1019.61 1019.62 1019.66 1019.70 1019.72 1019.69 1019.60 1019.45 1019.26 1019.04 1018.85 1018.69 1018.59 1018.56 1018.58 1018.64
1020.14 1020.35 1020.50 1020.61 1020.68 1020.72 1020.75 1020.80 1020.87 1020.97 1021.10 1021.25 1021.37 1021.45 1021.47 1021.41 1021.27 1021.05 1020.80 1020.53 1020.29 1020.08 1019.93 1019.84 1019.77 1019.73 1019.67 1019.58 1019.44 1019.26 1019.04 1018.82 1018.61 1018.44 1018.32 1018.27 1018.27 1018.30
1020.75 1020.97 1021.13 1021.24 1021.30 1021.34 1021.37 1021.42 1021.49 1021.61 1021.75 1021.90 1022.04 1022.14 1022.17 1022.11 1021.96 1021.73 1021.45 1021.14 1020.82 1020.54 1020.30 1020.10 1019.95 1019.82 1019.68 1019.53 1019.35 1019.14 1018.91 1018.67 1018.45 1018.27 1018.14 1018.06 1018.03 1018.04
1021.48 1021.72 1021.90 1022.02 1022.10 1022.14 1022.17 1022.21 1022.28 1022.38 1022.50 1022.64 1022.76 1022.85 1022.86 1022.79 1022.63 1022.39 1022.08 1021.72 1021.36 1021.02 1020.70 1020.43 1020.19 1019.98 1019.78 1019.57 1019.35 1019.11 1018.86 1018.62 1018.39 1018.19 1018.04 1017.93 1017.86 1017.82
1022.28 1022.55 1022.76 1022.91 1023.00 1023.06 1023.09 1023.13 1023.17 1023.24 1023.33 1023.43 1023.51 1023.56 1023.54 1023.45 1023.27 1023.01 1022.67 1022.30 1021.90 1021.51 1021.14 1020.80 1020.50 1020.22 1019.97 1019.71 1019.45 1019.18 1018.91 1018.64 1018.39 1018.17 1017.99 1017.84 1017.72 1017.62
1023.10 1023.40 1023.65 1023.83 1023.96 1024.04 1024.08 1024.11 1024.13 1024.16 1024.20 1024.24 1024.27 1024.26 1024.21 1024.08 1023.87 1023.59 1023.24 1022.84 1022.42 1022.00 1021.60 1021.22 1020.86 1020.53 1020.22 1019.92 1019.61 1019.31 1019.01 1018.71 1018.43 1018.17 1017.94 1017.74 1017.56 1017.40
1023.90 1024.24 1024.53 1024.75 1024.92 1025.02 1025.08 1025.10 1025.10 1025.09 1025.08 1025.06 1025.02 1024.96 1024.84 1024.67 1024.43 1024.13 1023.77 1023.36 1022.93 1022.49 1022.06 1021.64 1021.25 1020.88 1020.52 1020.17 1019.82 1019.47 1019.12 1018.78 1018.46 1018.15 1017.86 1017.59 1017.35 1017.11
1024.67 1025.03 1025.36 1025.62 1025.82 1025.96 1026.03 1026.05 1026.04 1026.00 1025.93 1025.85 1025.75 1025.62 1025.45 1025.23 1024.96 1024.63 1024.25 1023.84 1023.39 1022.94 1022.49 1022.05 1021.62 1021.21 1020.80 1020.40 1020.01 1019.61 1019.22 1018.82 1018.44 1018.06 1017.71 1017.37 1017.05 1016.75
1025.38 1025.76 1026.11 1026.41 1026.65 1026.81 1026.90 1026.92 1026.90 1026.82 1026.72 1026.59 1026.43 1026.23 1026.01 1025.74 1025.43 1025.08 1024.68 1024.25 1023.79 1023.33 1022.86 1022.39 1021.93 1021.48 1021.04 1020.60 1020.15 1019.70 1019.26 1018.80 1018.36 1017.92 1017.49 1017.08 1016.69 1016.31
1026.03 1026.43 1026.79 1027.11 1027.37 1027.54 1027.65 1027.67 1027.63 1027.54 1027.40 1027.23 1027.02 1026.78 1026.50 1026.19 1025.84 1025.45 1025.03 1024.58 1024.11 1023.63 1023.14 1022.65 1022.16 1021.68 1021.20 1020.72 1020.23 1019.74 1019.23 1018.73 1018.22 1017.71 1017.21 1016.73 1016.27 1015.83
1026.62 1027.01 1027.38 1027.70 1027.96 1028.14 1028.25 1028.27 1028.23 1028.12 1027.96 1027.75 1027.51 1027.23 1026.92 1026.57 1026.18 1025.76 1025.31 1024.84 1024.34 1023.84 1023.33 1022.81 1022.30 1021.80 1021.29 1020.77 1020.25 1019.71 1019.17 1018.61 1018.04 1017.47 1016.92 1016.37 1015.85 1015.36
1027.14 1027.52 1027.87 1028.18 1028.42 1028.60 1028.69 1028.71 1028.66 1028.54 1028.37 1028.15 1027.89 1027.59 1027.25 1026.87 1026.46 1026.01 1025.53 1025.03 1024.51 1023.97 1023.44 1022.90 1022.37 1021.84 1021.31 1020.77 1020.22 1019.65 1019.07 1018.47 1017.86 1017.24 1016.63 1016.04 1015.47 1014.94
1027.59 1027.94 1028.26 1028.54 1028.75 1028.90 1028.98 1028.99 1028.93 1028.82 1028.65 1028.43 1028.17 1027.86 1027.52 1027.13 1026.69 1026.22 1025.72 1025.18 1024.63 1024.07 1023.51 1022.95 1022.39 1021.84 1021.29 1020.73 1020.16 1019.57 1018.96 1018.33 1017.69 1017.04 1016.39 1015.76 1015.16 1014.60
1027.96 1028.28 1028.56 1028.79 1028.96 1029.07 1029.13 1029.12 1029.07 1028.96 1028.81 1028.61 1028.37 1028.08 1027.74 1027.35 1026.91 1026.43 1025.90 1025.34 1024.76 1024.17 1023.57 1022.98 1022.40 1021.83 1021.25 1020.68 1020.09 1019.48 1018.85 1018.20 1017.54 1016.86 1016.19 1015.53 1014.91 1014.33
1028.28 1028.54 1028.77 1028.94 1029.07 1029.14 1029.16 1029.14 1029.09 1029.00 1028.88 1028.72 1028.51 1028.26 1027.94 1027.57 1027.14 1026.65 1026.11 1025.52 1024.91 1024.29 1023.66 1023.03 1022.42 1021.82 1021.22 1020.62 1020.01 1019.39 1018.75 1018.08 1017.40 1016.71 1016.02 1015.36 1014.72 1014.14
1028.54 1028.75 1028.91 1029.02 1029.08 1029.11 1029.11 1029.08 1029.03 1028.97 1028.89 1028.77 1028.61 1028.41 1028.13 1027.79 1027.37 1026.88 1026.33 1025.73 1025.09 1024.43 1023.76 1023.10 1022.45 1021.81 1021.18 1020.56 1019.93 1019.29 1018.63 1017.96 1017.27 1016.57 1015.88 1015.21 1014.57 1013.98
1028.73 1028.88 1028.97 1029.02 1029.02 1029.01 1028.97 1028.94 1028.91 1028.88 1028.84 1028.77 1028.67 1028.51 1028.29 1027.98 1027.59 1027.11 1026.55 1025.94 1025.27 1024.58 1023.88 1023.17 1022.49 1021.81 1021.15 1020.49 1019.84 1019.18 1018.51 1017.82 1017.13 1016.43 1015.75 1015.08 1014.45 1013.87
1028.86 1028.94 1028.96 1028.94 1028.89 1028.83 1028.77 1028.74 1028.72 1028.72 1028.72 1028.71 1028.66 1028.55 1028.37 1028.10 1027.74 1027.28 1026.73 1026.10 1025.42 1024.70 1023.97 1023.23 1022.51 1021.79 1021.10 1020.41 1019.73 1019.05 1018.37 1017.68 1016.99 1016.30 1015.63 1014.98 1014.37 1013.80
1028.90 1028.90 1028.85 1028.77 1028.67 1028.57 1028.50 1028.46 1028.45 1028.48 1028.51 1028.54 1028.54 1028.49 1028.35 1028.11 1027.78 1027.34 1026.80 1026.18 1025.49 1024.76 1024.01 1023.25 1022.50 1021.76 1021.04 1020.33 1019.63 1018.94 1018.25 1017.56 1016.88 1016.21 1015.56 1014.94 1014.35 1013.80
Thickness
5712 5711 5710 5709 5709 5708 5707 5705 5701 5696 5695 5698 5700 5702 5703 5703 5703 5703 5702 5701 5700 5699 5698 5696 5695 5693 5691 5690 5689 5687 5686 5685 5684 5683 5682 5681 5681 5680
5707 5706 5705 5704 5703 5703 5702 5701 5700 5697 5692 5692 5693 5694 5695 5696 5695 5695 5694 5694 5693 5692 5691 5690 5688 5687 5685 5684 5682 5681 5680 5679 5678 5678 5677 5676 5676 5675
5701 5700 5698 5698 5696 5696 5695 5694 5693 5692 5687 5686 5686 5686 5686 5686 5686 5686 5685 5684 5683 5682 5682 5680 5679 5678 5677 5675 5674 5673 5673 5672 5671 5671 5670 5670 5669 5669
5694 5693 5691 5690 5689 5688 5687 5686 5684 5684 5682 5678 5677 5677 5676 5675 5675 5675 5674 5673 5672 5671 5670 5669 5668 5667 5666 5665 5664 5663 5663 5663 5662 5662 5661 5661 5661 5661
5686 5684 5682 5681 5679 5678 5677 5676 5675 5675 5673 5670 5667 5665 5665 5664 5663 5663 5662 5660 5660 5659 5657 5656 5655 5654 5653 5652 5652 5651 5651 5651 5651 5651 5651 5651 5650 5651
5677 5675 5673 5672 5669 5668 5666 5665 5664 5663 5661 5658 5655 5653 5652 5650 5649 5648 5647 5646 5645 5644 5643 5642 5641 5640 5639 5639 5638 5637 5637 5637 5637 5637 5637 5638 5638 5638
5667 5665 5663 5662 5660 5658 5656 5653 5652 5650 5647 5645 5642 5640 5637 5636 5634 5632 5632 5631 5630 5628 5627 5627 5626 5625 5624 5623 5622 5621 5621 5622 5622 5622 5622 5622 5623 5624
5657 5654 5651 5649 5647 5646 5644 5641 5639 5637 5634 5631 5627 5624 5621 5619 5618 5618 5617 5617 5616 5613 5611 5611 5610 5608 5606 5606 5604 5604 5603 5603 5603 5604 5604 5605 5606 5607
5646 5643 5641 5637 5635 5632 5630 5627 5625 5622 5620 5616 5612 5608 5606 5604 5603 5602 5600 5598 5597 5596 5595 5596 5593 5591 5589 5587 5586 5585 5584 5583 5583 5583 5584 5585 5587 5588
5635 5631 5628 5625 5623 5619 5617 5613 5609 5606 5603 5601 5597 5593 5590 5588 5587 5585 5582 5581 5579 5578 5576 5576 5576 5574 5572 5569 5567 5565 5563 5563 5562 5563 5564 5565 5567 5569
5622 5619 5615 5612 5609 5607 5604 5599 5594 5589 5586 5584 5581 5577 5574 5572 5569 5568 5566 5564 5563 5561 5556 5554 5555 5554 5554 5551 5547 5544 5542 5541 5541 5542 5543 5544 5546 5549
5609 5605 5602 5599 5595 5592 5588 5584 5578 5573 5569 5567 5563 5560 5556 5553 5550 5546 5544 5542 5540 5539 5536 5532 5532 5530 5534 5533 5527 5523 5522 5521 5521 5522 5523 5524 5525 5528
5597 5592 5588 5585 5581 5577 5573 5568 5562 5557 5553 5549 5545 5541 5537 5533 5529 5525 5521 5518 5516 5514 5512 5509 5508 5506 5504 5507 5507 5502 5500 5501 5501 5502 5503 5504 5505 5507
5584 5578 5573 5570 5566 5561 5556 5551 5546 5542 5537 5532 5527 5522 5517 5513 5508 5504 5501 5497 5493 5491 5488 5485 5484 5482 5480 5482 5485 5485 5481 5480 5482 5484 5485 5487 5488 5490
5570 5564 5559 5555 5550 5545 5539 5534 5530 5524 5519 5514 5507 5502 5496 5492 5489 5485 5482 5478 5474 5471 5469 5465 5463 5461 5458 5459 5462 5464 5465 5466 5465 5466 5468 5470 5473 5476
5555 5549 5544 5539 5534 5528 5522 5516 5511 5505 5499 5493 5487 5481 5477 5473 5470 5466 5463 5459 5457 5455 5450 5448 5445 5443 5443 5443 5443 5446 5447 5449 5451 5451 5454 5457 5460 5463
5541 5535 5529 5523 5517 5511 5505 5498 5492 5486 5480 5474 5469 5464 5460 5456 5452 5447 5443 5441 5438 5437 5437 5435 5432 5430 5429 5429 5432 5434 5435 5436 5437 5440 5443 5448 5451 5454
5529 5521 5514 5507 5501 5494 5489 5482 5476 5469 5463 5458 5453 5447 5443 5439 5435 5431 5428 5425 5423 5422 5422 5422 5422 5423 5424 5424 5421 5423 5425 5426 5429 5431 5434 5439 5445 5448
5514 5506 5499 5493 5486 5480 5474 5468 5461 5455 5449 5444 5438 5433 5428 5425 5421 5418 5415 5413 5412 5411 5410 5410 5410 5410 5413 5416 5417 5413 5414 5418 5421 5425 5428 5431 5437 5442
5500 5494 5487 5480 5474 5467 5461 5455 5449 5443 5438 5432 5427 5422 5417 5413 5410 5407 5405 5402 5402 5402 5402 5402 5401 5400 5400 5403 5407 5409 5409 5411 5415 5419 5423 5427 5432 5436
5488 5482 5475 5469 5462 5457 5451 5445 5439 5434 5428 5423 5418 5413 5408 5404 5401 5398 5396 5394 5393 5394 5395 5396 5395 5393 5394 5397 5401 5406 5407 5406 5408 5411 5416 5422 5428 5433
5477 5471 5465 5459 5453 5448 5442 5437 5432 5427 5421 5416 5411 5406 5401 5397 5394 5391 5390 5389 5388 5388 5388 5390 5391 5392 5392 5393 5396 5400 5404 5405 5406 5408 5411 5413 5417 5424
5467 5461 5456 5451 5446 5440 5435 5430 5425 5420 5415 5410 5404 5400 5395 5392 5389 5386 5385 5384 5384 5384 5385 5386 5388 5388 5389 5390 5391 5395 5399 5402 5405 5408 5410 5411 5413 5417